Tracking 22454 objects as of 5-Mar-2021
HD Live streaming from Space Station
objects crossing your sky now

DELTA 1 DEB

Track DELTA 1 DEB now!
10-day predictions


NORAD ID: 26841
Int'l Code: 1975-052KV
Perigee: 928.3 km
Apogee: 1,730.9 km
Inclination: 99.9 °
Period: 112.1 minutes
Semi major axis: 7700 km
RCS: 0.0089 m2 (small)
Launch date: June 12, 1975
Source: United States (US)
Launch site: AIR FORCE WESTERN TEST RANGE (AFWTR)

Note: This is SATELLITE DEBRIS
aabbcc
Your satellite tracking list
Your tracking list is empty




NASA's NSSDC Master Catalog

Two Line Element Set (TLE):
1 26841U 75052KV  21063.36916486  .00000251  00000-0  65485-3 0  9994
2 26841  99.9078 215.8847 0521137 131.2272 262.6311 12.84734668322767
Source of the keplerian elements: AFSPC